STARLINK-32586

Last updated on Thu Nov 21 2024 00:02:07 GMT+0000 (Coordinated Universal Time)

1 61975U 24210S 24325.66668981 -.00927487 26629-3 -25410-2 0 9994 2 61975 43.0026 353.4788 0001787 283.9472 80.7778 15.93098514 2195
UTC large
Height (km)
Speed (km/s)
/
Latitude / Longitude
Inclination (degrees)
Orbital Period (minutes)
Azimuth
Elevation
Range (km)
Doppler Factor

Next 0 passes for location: London (51.5072 / 0.1276)

Sorry there are no passes over London.